| time (UTC) | temp F | wind direction | speed MPH | gust MPH | rain 1hr in | rain 24hr in | rain mn in | humidity % | barometer mb |
| 20260507080833 | 42 | 326 | 0.0 | 0.0 | 0.00 | 0.01 | 0.00 | 90 | 1015.3 |
| 20260507075813 | 42 | 325 | 0.0 | 0.0 | 0.00 | 0.01 | 0.00 | 90 | 1015.1 |
| 20260507074813 | 42 | 360 | 0.0 | 0.0 | 0.00 | 0.01 | 0.00 | 90 | 1015.2 |
| 20260507073813 | 42 | 325 | 0.0 | 0.0 | 0.00 | 0.02 | 0.00 | 89 | 1015.0 |
| 20260507072813 | 42 | 327 | 0.0 | 0.0 | 0.00 | 0.03 | 0.00 | 89 | 1015.2 |
| 20260507071813 | 42 | 324 | 0.0 | 0.0 | 0.00 | 0.04 | 0.00 | 89 | 1015.1 |
| 20260507070832 | 43 | 323 | 0.0 | 0.0 | 0.00 | 0.06 | 0.00 | 89 | 1015.1 |
| 20260507065812 | 43 | 326 | 0.0 | 0.0 | 0.00 | 0.08 | 0.00 | 89 | 1015.1 |
| 20260507064812 | 44 | 323 | 0.0 | 0.0 | 0.00 | 0.10 | 0.00 | 89 | 1015.1 |
| 20260507063812 | 44 | 323 | 0.0 | 0.0 | 0.00 | 0.10 | 0.00 | 90 | 1015.2 |
| 20260507062812 | 44 | 330 | 0.0 | 1.0 | 0.00 | 0.10 | 0.00 | 90 | 1015.4 |
| 20260507061812 | 44 | 323 | 0.0 | 0.0 | 0.00 | 0.11 | 0.00 | 91 | 1015.2 |
| 20260507060812 | 43 | 325 | 0.0 | 0.0 | 0.00 | 0.12 | 0.00 | 92 | 1015.2 |
| 20260507055812 | 43 | 319 | 0.0 | 0.0 | 0.00 | 0.13 | 0.00 | 91 | 1015.3 |
| 20260507054812 | 43 | 313 | 0.0 | 0.0 | 0.00 | 0.16 | 0.00 | 91 | 1015.3 |
| 20260507014810 | 48 | 314 | 0.0 | 0.0 | 0.00 | 0.68 | 0.50 | 83 | 1014.9 |
| 20260507013809 | 48 | 311 | 0.0 | 0.0 | 0.00 | 0.70 | 0.50 | 83 | 1014.8 |
| 20260507012809 | 48 | 314 | 0.0 | 0.0 | 0.00 | 0.70 | 0.50 | 80 | 1014.7 |
| 20260507011809 | 49 | 313 | 0.0 | 0.0 | 0.00 | 0.71 | 0.50 | 79 | 1014.4 |
| 20260506225808 | 59 | 28 | 3.0 | 6.0 | 0.00 | 0.90 | 0.50 | 57 | 1013.7 |
| 20260506224808 | 58 | 341 | 0.0 | 3.0 | 0.00 | 0.90 | 0.50 | 59 | 1013.7 |
| 20260506223808 | 58 | 22 | 1.0 | 3.0 | 0.00 | 0.90 | 0.50 | 56 | 1013.9 |
| 20260506222808 | 58 | 325 | 0.0 | 0.0 | 0.00 | 0.90 | 0.50 | 57 | 1013.9 |
| 20260506221828 | 58 | 321 | 0.0 | 0.0 | 0.00 | 0.90 | 0.50 | 57 | 1014.0 |
| 20260506220808 | 58 | 19 | 1.0 | 3.0 | 0.00 | 0.91 | 0.50 | 57 | 1014.0 |
| 20260506175806 | 60 | 339 | 2.0 | 6.0 | 0.00 | 1.07 | 0.50 | 56 | 1013.2 |
| 20260506174806 | 60 | 345 | 3.0 | 8.0 | 0.00 | 1.07 | 0.50 | 57 | 1013.5 |
| 20260506133804 | 49 | 23 | 3.0 | 6.0 | 0.00 | 1.07 | 0.50 | 83 | 1012.6 |
| 20260506132804 | 48 | 13 | 2.0 | 6.0 | 0.00 | 1.07 | 0.50 | 83 | 1012.5 |
| 20260506131804 | 48 | 345 | 3.0 | 5.0 | 0.00 | 1.07 | 0.50 | 84 | 1012.1 |
| 20260506130804 | 48 | 298 | 1.0 | 4.0 | 0.00 | 1.07 | 0.50 | 84 | 1012.1 |
| 20260506125803 | 48 | 314 | 3.0 | 3.0 | 0.00 | 1.07 | 0.50 | 86 | 1012.2 |
| 20260506124803 | 48 | 84 | 0.0 | 4.0 | 0.00 | 1.07 | 0.50 | 86 | 1011.9 |
| 20260506123803 | 47 | 23 | 2.0 | 4.0 | 0.00 | 1.07 | 0.50 | 87 | 1011.8 |
| 20260506122803 | 46 | 40 | 0.0 | 3.0 | 0.00 | 1.07 | 0.50 | 88 | 1011.7 |
| 20260506121803 | 46 | 67 | 0.0 | 3.0 | 0.00 | 1.07 | 0.50 | 89 | 1011.5 |